Inquirer Daily News

Weather

Get conditions and forecasts for any City, State, ZIP code or Country:  
Trenton, NJ
on Sunday, February 24, 2013

Sunday
Previous Day Next Day
Daily Summary
 ActualAverageRecord
Temperature
Mean Temperature °F 36°F  
Max Temperature 48°F 45°F 74°F (1985)
Min Temperature 32°F 27°F -2°F (1889)
Degree Days
Heating Degree Days 25 29  
Month to date heating degree days 792 753  
Since 1 July heating degree days 3500 3699  
Cooling Degree Days 0 0  
Month to date cooling degree days 0 0  
Year to date cooling degree days 0 0  
Moisture
Dew Point 30°F   
Average Humidity 71    
Maximum Humidity 92    
Minimum Humidity 49    
Precipitation
Precipitation T in 0.09 in 1.67 in (1977)
Month to date precipitation 1.29 1.93  
Year to date precipitation 4.11 5.09  
Wind
Wind Speed 9 mph   
Max Wind Speed 21 mph   
Max Gust Speed 30 mph   
Visibility 10 miles   
Events     

Key: T is trace of precipitation, MM is missing value
Source: NWS Daily Summary
Time(EST)TemperatureDew PointHumidity Pressure Visibility Wind DirectionWind SpeedGust SpeedPrecipitationEvents Conditions
12:45 AM 37.4°F 35.6°F 93% 29.81 in 7.0 miles NNE 6.9 mph - N/A   Overcast
12:53 AM 37.0°F 35.1°F 93% 29.80 in 7.0 miles NNE 6.9 mph - N/A   Overcast
1:53 AM 37.0°F 35.1°F 93% 29.79 in 10.0 miles North 5.8 mph - N/A   Overcast
2:53 AM 37.0°F 36.0°F 96% 29.80 in 10.0 miles North 4.6 mph - 0.00 in   Overcast
3:03 AM 37.4°F 35.6°F 93% 29.80 in 10.0 miles North 3.5 mph - N/A   Overcast
3:11 AM 37.4°F 35.6°F 93% 29.80 in 10.0 miles North 3.5 mph - N/A   Overcast
3:53 AM 37.0°F 35.1°F 93% 29.76 in 10.0 miles NNE 5.8 mph - N/A   Overcast
4:53 AM 37.0°F 35.1°F 93% 29.76 in 10.0 miles North 5.8 mph - N/A   Overcast
5:31 AM 37.4°F 33.8°F 87% 29.78 in 10.0 miles North 6.9 mph - N/A   Overcast
5:53 AM 36.0°F 34.0°F 93% 29.77 in 10.0 miles North 5.8 mph - N/A   Overcast
6:29 AM 35.6°F 33.8°F 93% 29.79 in 10.0 miles North 5.8 mph - N/A   Overcast
6:53 AM 36.0°F 34.0°F 93% 29.76 in 10.0 miles NNE 3.5 mph - N/A   Partly Cloudy
7:53 AM 37.0°F 34.0°F 89% 29.78 in 10.0 miles NW 5.8 mph - N/A   Clear
8:53 AM 39.9°F 36.0°F 86% 29.79 in 10.0 miles NW 6.9 mph - N/A   Partly Cloudy
9:53 AM 44.1°F 37.0°F 76% 29.78 in 10.0 miles North 8.1 mph - N/A   Mostly Cloudy
10:00 AM 44.6°F 37.4°F 76% 29.79 in 10.0 miles North 8.1 mph - N/A   Scattered Clouds
10:53 AM 46.9°F 33.1°F 59% 29.78 in 10.0 miles North 15.0 mph 23.0 mph N/A   Scattered Clouds
11:53 AM 46.0°F 30.0°F 54% 29.78 in 10.0 miles North 9.2 mph 19.6 mph N/A   Mostly Cloudy
12:53 PM 46.0°F 28.9°F 51% 29.78 in 10.0 miles NW 16.1 mph 24.2 mph N/A   Overcast
1:53 PM 45.0°F 28.0°F 52% 29.78 in 10.0 miles NW 16.1 mph 25.3 mph N/A   Overcast
2:53 PM 43.0°F 27.0°F 53% 29.79 in 10.0 miles NW 15.0 mph 24.2 mph N/A   Overcast
3:53 PM 41.0°F 25.0°F 53% 29.82 in 10.0 miles NW 18.4 mph 24.2 mph N/A   Overcast
4:53 PM 39.0°F 24.1°F 55% 29.85 in 10.0 miles NNW 11.5 mph 18.4 mph N/A   Overcast
5:53 PM 36.0°F 25.0°F 64% 29.89 in 10.0 miles North 12.7 mph 20.7 mph N/A   Overcast
6:53 PM 35.1°F 23.0°F 61% 29.93 in 10.0 miles NW 6.9 mph - N/A   Clear
7:53 PM 34.0°F 21.0°F 59% 29.96 in 10.0 miles NW 6.9 mph - N/A   Clear
8:53 PM 34.0°F 19.9°F 56% 29.97 in 10.0 miles NW 6.9 mph - N/A   Clear
9:53 PM 33.1°F 19.0°F 56% 29.99 in 10.0 miles NNW 9.2 mph - N/A   Clear
10:53 PM 33.1°F 19.0°F 56% 29.99 in 10.0 miles NNW 8.1 mph - N/A   Clear
11:53 PM 32.0°F 19.0°F 59% 30.00 in 10.0 miles NNW 8.1 mph - N/A   Clear
Astronomy
Sunrise:06:39 AM (EST) Moon Rise:04:54 PM (EST)
Sunset:05:45 PM (EST) Moon Set:05:35 AM (EST)
Moon Phase
Feb. 24 Feb. 25 Mar. 04 Mar. 11 Mar. 19

Copyright © 2014 The Weather Underground, Inc.